SJX1 MMUN-KJFK

Flight info

Callsign SJX1
Flight time 2h 53m
Altitude 41000
Route ROTGI2A ROTGI UM219 MYDIA M219 KNOST Q109 DFENC DCT SAWED Q108 SIE CAMRN5
Aircraft A359/H-SDE2E3GHIJ3J4J5LM1ORWXY/LB1D1

Departure

Time 2026-05-07 13:14
Airport Cancún International Airport (MMUN)

Arrival

Time 2026-05-07 16:07
Airport John F. Kennedy International Airport (KJFK)
Time Latitude Longitude Altitude Speed Heading
2026-05-07 13:05 21.03964 -86.87733 35 ft 0 kts 90°
2026-05-07 13:06 21.03964 -86.87740 35 ft 3 kts 90°
2026-05-07 13:07 21.03964 -86.87762 29 ft 3 kts 90°
2026-05-07 13:07 21.03964 -86.87784 40 ft 3 kts 90°
2026-05-07 13:07 21.03967 -86.87805 34 ft 3 kts 126°
2026-05-07 13:07 21.03983 -86.87819 32 ft 3 kts 168°
2026-05-07 13:08 21.04003 -86.87819 32 ft 3 kts 193°
2026-05-07 13:08 21.04022 -86.87812 32 ft 3 kts 214°
2026-05-07 13:08 21.04038 -86.87800 31 ft 0 kts 214°
2026-05-07 13:09 21.04030 -86.87806 34 ft 5 kts 214°
2026-05-07 13:09 21.03991 -86.87820 34 ft 7 kts 182°
2026-05-07 13:10 21.03965 -86.87843 34 ft 5 kts 250°
2026-05-07 13:10 21.03980 -86.87899 34 ft 11 kts 298°
2026-05-07 13:10 21.04027 -86.87975 34 ft 14 kts 304°
2026-05-07 13:10 21.04087 -86.88071 34 ft 17 kts 304°
2026-05-07 13:11 21.04156 -86.88182 35 ft 19 kts 303°
2026-05-07 13:11 21.04235 -86.88308 35 ft 21 kts 304°
2026-05-07 13:11 21.04323 -86.88447 35 ft 24 kts 304°
2026-05-07 13:11 21.04418 -86.88601 35 ft 26 kts 303°
2026-05-07 13:12 21.04519 -86.88759 35 ft 23 kts 302°
2026-05-07 13:12 21.04610 -86.88910 35 ft 25 kts 303°
2026-05-07 13:12 21.04613 -86.89025 34 ft 14 kts 217°
2026-05-07 13:12 21.04531 -86.89072 33 ft 8 kts 174°
2026-05-07 13:13 21.04506 -86.89045 34 ft 5 kts 123°
2026-05-07 13:13 21.04465 -86.88978 34 ft 32 kts 123°
2026-05-07 13:13 21.04194 -86.88549 36 ft 105 kts 124°
2026-05-07 13:13 21.03666 -86.87704 94 ft 160 kts 125°
2026-05-07 13:14 21.03086 -86.86704 868 ft 156 kts 123°
2026-05-07 13:14 21.02522 -86.85710 1656 ft 164 kts 122°
2026-05-07 13:14 21.01881 -86.84595 1983 ft 190 kts 123°
2026-05-07 13:14 21.01234 -86.83234 2364 ft 217 kts 108°
2026-05-07 13:15 21.01274 -86.81562 2942 ft 241 kts 80°
2026-05-07 13:15 21.01796 -86.79782 3543 ft 257 kts 74°
2026-05-07 13:15 21.02403 -86.77953 4397 ft 260 kts 74°
2026-05-07 13:15 21.02993 -86.76133 5217 ft 264 kts 75°
2026-05-07 13:16 21.03594 -86.74231 5978 ft 270 kts 75°
2026-05-07 13:16 21.04220 -86.72314 6746 ft 276 kts 71°
2026-05-07 13:16 21.05277 -86.70598 7496 ft 285 kts 46°
2026-05-07 13:16 21.06873 -86.69299 8348 ft 289 kts 36°
2026-05-07 13:17 21.08578 -86.68115 9202 ft 292 kts 34°
2026-05-07 13:17 21.10361 -86.67101 10001 ft 297 kts 21°
2026-05-07 13:17 21.12447 -86.66738 10522 ft 313 kts
2026-05-07 13:17 21.14705 -86.66743 10828 ft 334 kts
2026-05-07 13:18 21.17081 -86.66797 11106 ft 351 kts
2026-05-07 13:18 21.19566 -86.66837 11559 ft 361 kts
2026-05-07 13:18 21.22099 -86.66867 12140 ft 366 kts
2026-05-07 13:18 21.24650 -86.66890 12757 ft 369 kts
2026-05-07 13:19 21.27240 -86.66910 13397 ft 372 kts
2026-05-07 13:19 21.29814 -86.66924 13974 ft 375 kts
2026-05-07 13:19 21.32458 -86.66937 14520 ft 378 kts
2026-05-07 13:19 21.35084 -86.66949 15082 ft 380 kts
2026-05-07 13:20 21.37741 -86.66962 15655 ft 383 kts
2026-05-07 13:20 21.40437 -86.66974 16234 ft 385 kts
2026-05-07 13:20 21.43116 -86.66986 16826 ft 387 kts
2026-05-07 13:20 21.45805 -86.66998 17413 ft 389 kts
2026-05-07 13:21 21.48520 -86.67012 18011 ft 392 kts
2026-05-07 13:21 21.51244 -86.67024 18539 ft 395 kts
2026-05-07 13:21 21.54023 -86.67037 19004 ft 399 kts
2026-05-07 13:21 21.56809 -86.67050 19433 ft 404 kts
2026-05-07 13:22 21.59632 -86.67062 19881 ft 409 kts
2026-05-07 13:22 21.62518 -86.67075 20335 ft 414 kts
2026-05-07 13:22 21.65399 -86.67088 20796 ft 418 kts
2026-05-07 13:22 21.68353 -86.67103 21269 ft 423 kts
2026-05-07 13:23 21.71299 -86.67117 21740 ft 428 kts
2026-05-07 13:23 21.74266 -86.67131 22193 ft 432 kts
2026-05-07 13:23 21.77325 -86.67145 22671 ft 437 kts
2026-05-07 13:23 21.80371 -86.67160 23117 ft 442 kts
2026-05-07 13:24 21.83441 -86.67121 23545 ft 447 kts
2026-05-07 13:24 21.86553 -86.66699 23967 ft 449 kts 10°
2026-05-07 13:24 21.89627 -86.66076 24414 ft 452 kts 12°
2026-05-07 13:24 21.92691 -86.65372 24902 ft 454 kts 12°
2026-05-07 13:25 21.95816 -86.64619 25414 ft 456 kts 13°
2026-05-07 13:25 21.98912 -86.63869 25944 ft 459 kts 12°
2026-05-07 13:25 22.02017 -86.63125 26448 ft 462 kts 12°
2026-05-07 13:25 22.05194 -86.62375 26975 ft 465 kts 12°
2026-05-07 13:26 22.08348 -86.61640 27484 ft 468 kts 11°
2026-05-07 13:26 22.11529 -86.60904 27988 ft 471 kts 11°
2026-05-07 13:26 22.14765 -86.60158 28489 ft 474 kts 11°
2026-05-07 13:26 22.17977 -86.59419 28995 ft 477 kts 11°
2026-05-07 13:27 22.21220 -86.58671 29485 ft 480 kts 11°
2026-05-07 13:27 22.24520 -86.57909 29975 ft 482 kts 11°
2026-05-07 13:27 22.27805 -86.57151 30396 ft 485 kts 11°
2026-05-07 13:27 22.31094 -86.56391 30793 ft 488 kts 10°
2026-05-07 13:28 22.34455 -86.55615 31181 ft 491 kts 10°
2026-05-07 13:28 22.37788 -86.54843 31557 ft 493 kts 10°
2026-05-07 13:28 22.41141 -86.54067 31923 ft 496 kts 10°
2026-05-07 13:28 22.44519 -86.53284 32276 ft 499 kts 10°
2026-05-07 13:29 22.47943 -86.52490 32612 ft 501 kts 10°
2026-05-07 13:29 22.51337 -86.51702 32941 ft 504 kts 10°
2026-05-07 13:29 22.54803 -86.50898 33270 ft 507 kts
2026-05-07 13:29 22.58233 -86.50101 33587 ft 509 kts
2026-05-07 13:30 22.61735 -86.49288 33895 ft 511 kts
2026-05-07 13:30 22.65191 -86.48484 34250 ft 511 kts
2026-05-07 13:30 22.68680 -86.47672 34658 ft 509 kts
2026-05-07 13:30 22.72125 -86.46869 35086 ft 508 kts
2026-05-07 13:31 22.75562 -86.46068 35491 ft 506 kts
2026-05-07 13:31 22.79013 -86.45266 35886 ft 505 kts
2026-05-07 13:31 22.82448 -86.44466 36259 ft 504 kts
2026-05-07 13:31 22.85842 -86.43673 36627 ft 503 kts
2026-05-07 13:32 22.89268 -86.42873 36992 ft 502 kts
2026-05-07 13:32 22.92691 -86.42072 37367 ft 501 kts
2026-05-07 13:32 22.96074 -86.41281 37733 ft 499 kts
2026-05-07 13:32 22.99484 -86.40483 38091 ft 498 kts
2026-05-07 13:33 23.02877 -86.39689 38446 ft 497 kts
2026-05-07 13:33 23.06224 -86.38905 38762 ft 496 kts
2026-05-07 13:33 23.09605 -86.38113 39040 ft 495 kts
2026-05-07 13:33 23.12983 -86.37322 39302 ft 494 kts
2026-05-07 13:34 23.16307 -86.36543 39564 ft 493 kts
2026-05-07 13:34 23.22999 -86.34973 40080 ft 491 kts
2026-05-07 13:34 23.26346 -86.34187 40332 ft 490 kts
2026-05-07 13:35 23.29685 -86.33403 40583 ft 489 kts
2026-05-07 13:35 23.32980 -86.32632 40828 ft 488 kts
2026-05-07 13:35 23.36311 -86.31851 41003 ft 489 kts
2026-05-07 13:36 23.43022 -86.30272 41023 ft 496 kts
2026-05-07 13:36 23.49770 -86.28682 41026 ft 499 kts
2026-05-07 13:37 23.56567 -86.27076 41027 ft 499 kts
2026-05-07 13:37 23.63336 -86.25478 41034 ft 499 kts
2026-05-07 13:38 23.70138 -86.23870 41033 ft 499 kts
2026-05-07 13:38 23.76884 -86.22275 41031 ft 499 kts
2026-05-07 13:39 23.83684 -86.20665 41031 ft 499 kts
2026-05-07 13:39 23.90443 -86.19063 41035 ft 499 kts
2026-05-07 13:40 23.97213 -86.17457 41036 ft 499 kts
2026-05-07 13:40 24.03945 -86.15511 41036 ft 503 kts 18°
2026-05-07 13:41 24.10247 -86.12076 41032 ft 506 kts 26°
2026-05-07 13:41 24.16353 -86.08313 41038 ft 507 kts 27°
2026-05-07 13:42 24.22487 -86.04462 41041 ft 507 kts 27°
2026-05-07 13:42 24.28625 -86.00629 41040 ft 507 kts 26°
2026-05-07 13:43 24.34770 -85.96808 41041 ft 507 kts 26°
2026-05-07 13:43 24.40881 -85.93012 41043 ft 507 kts 26°
2026-05-07 13:44 24.47032 -85.89185 41043 ft 507 kts 26°
2026-05-07 13:44 24.53176 -85.85358 41047 ft 507 kts 26°
2026-05-07 13:45 24.58275 -85.82178 41046 ft 507 kts 26°
2026-05-07 13:45 24.65456 -85.77694 41046 ft 507 kts 26°
2026-05-07 13:46 24.71556 -85.73880 41044 ft 507 kts 26°
2026-05-07 13:46 24.77699 -85.70036 41045 ft 507 kts 26°
2026-05-07 13:47 24.82799 -85.66840 41044 ft 507 kts 26°
2026-05-07 13:47 24.88940 -85.62989 41045 ft 507 kts 26°
2026-05-07 13:48 24.95075 -85.59136 41044 ft 507 kts 26°
2026-05-07 13:48 25.01166 -85.55307 41048 ft 507 kts 26°
2026-05-07 13:49 25.07300 -85.51448 41046 ft 507 kts 26°
2026-05-07 13:49 25.13427 -85.47585 41048 ft 507 kts 26°
2026-05-07 13:50 25.19555 -85.43718 41049 ft 507 kts 26°
2026-05-07 13:50 25.26673 -85.39223 41052 ft 507 kts 26°
2026-05-07 13:51 25.31830 -85.36155 41051 ft 504 kts 20°
2026-05-07 13:51 25.38503 -85.34103 41056 ft 494 kts
2026-05-07 13:52 25.45327 -85.33254 41053 ft 493 kts
2026-05-07 13:52 25.52160 -85.32594 41056 ft 493 kts
2026-05-07 13:53 25.58997 -85.31934 41052 ft 493 kts
2026-05-07 13:53 25.65803 -85.31248 41054 ft 493 kts
2026-05-07 13:54 25.72642 -85.30544 41057 ft 493 kts
2026-05-07 13:54 25.79484 -85.29838 41054 ft 493 kts
2026-05-07 13:55 25.86322 -85.29132 41057 ft 493 kts
2026-05-07 13:55 25.93119 -85.28430 41057 ft 493 kts
2026-05-07 13:56 25.99963 -85.27723 41056 ft 493 kts
2026-05-07 13:56 26.06808 -85.27021 41057 ft 493 kts
2026-05-07 13:57 26.13612 -85.26317 41062 ft 493 kts
2026-05-07 13:57 26.20455 -85.25603 41059 ft 493 kts
2026-05-07 13:58 26.27301 -85.24891 41061 ft 493 kts
2026-05-07 13:58 26.34132 -85.24181 41058 ft 493 kts
2026-05-07 13:59 26.40847 -85.22641 41069 ft 501 kts 14°
2026-05-07 13:59 26.47456 -85.20105 41067 ft 502 kts 15°
2026-05-07 14:00 26.54026 -85.17414 41065 ft 503 kts 16°
2026-05-07 14:00 26.60595 -85.14712 41064 ft 503 kts 15°
2026-05-07 14:01 26.67183 -85.12021 41066 ft 503 kts 15°
2026-05-07 14:01 26.73753 -85.09346 41065 ft 503 kts 15°
2026-05-07 14:02 26.80290 -85.06682 41063 ft 503 kts 15°
2026-05-07 14:02 26.86877 -85.03994 41063 ft 503 kts 15°
2026-05-07 14:03 26.93458 -85.01305 41063 ft 503 kts 15°
2026-05-07 14:03 26.99994 -84.98631 41063 ft 503 kts 15°
2026-05-07 14:04 27.06583 -84.95931 41064 ft 503 kts 15°
2026-05-07 14:04 27.13168 -84.93230 41069 ft 503 kts 15°
2026-05-07 14:05 27.19702 -84.90546 41070 ft 503 kts 15°
2026-05-07 14:05 27.26281 -84.87841 41069 ft 503 kts 15°
2026-05-07 14:06 27.32867 -84.85129 41071 ft 503 kts 15°
2026-05-07 14:06 27.39445 -84.82417 41060 ft 503 kts 15°
2026-05-07 14:07 27.45727 -84.78911 41065 ft 514 kts 31°
2026-05-07 14:07 27.50844 -84.73212 41068 ft 526 kts 52°
2026-05-07 14:08 27.54238 -84.65844 41070 ft 532 kts 63°
2026-05-07 14:08 27.57122 -84.58127 41073 ft 534 kts 65°
2026-05-07 14:09 27.59939 -84.50435 41070 ft 534 kts 65°
2026-05-07 14:09 27.62813 -84.42708 41074 ft 534 kts 64°
2026-05-07 14:10 27.65707 -84.34998 41076 ft 534 kts 64°
2026-05-07 14:10 27.68602 -84.27287 41070 ft 534 kts 64°
2026-05-07 14:11 27.71500 -84.19552 41067 ft 534 kts 64°
2026-05-07 14:11 27.74385 -84.11828 41069 ft 534 kts 64°
2026-05-07 14:12 27.77267 -84.04097 41069 ft 534 kts 64°
2026-05-07 14:12 27.80146 -83.96358 41078 ft 535 kts 64°
2026-05-07 14:13 27.83021 -83.88612 41075 ft 535 kts 64°
2026-05-07 14:13 27.85895 -83.80856 41072 ft 535 kts 64°
2026-05-07 14:14 27.88763 -83.73097 41073 ft 535 kts 64°
2026-05-07 14:14 27.91612 -83.65376 41072 ft 535 kts 64°
2026-05-07 14:15 27.94480 -83.57589 41073 ft 535 kts 64°
2026-05-07 14:15 27.97629 -83.49973 41074 ft 531 kts 54°
2026-05-07 14:16 28.02405 -83.43786 41074 ft 516 kts 33°
2026-05-07 14:16 28.05369 -83.41542 41071 ft 508 kts 22°
2026-05-07 14:16 28.08530 -83.39972 41071 ft 500 kts 12°
2026-05-07 14:17 28.15210 -83.37847 41068 ft 497 kts
2026-05-07 14:17 28.21932 -83.35983 41072 ft 497 kts
2026-05-07 14:18 28.28663 -83.34107 41069 ft 498 kts
2026-05-07 14:18 28.35391 -83.32186 41067 ft 498 kts
2026-05-07 14:19 28.42117 -83.30244 41065 ft 498 kts
2026-05-07 14:19 28.48800 -83.28308 41064 ft 499 kts
2026-05-07 14:20 28.55530 -83.26358 41064 ft 499 kts
2026-05-07 14:20 28.62263 -83.24406 41065 ft 499 kts
2026-05-07 14:21 28.68984 -83.22455 41065 ft 498 kts
2026-05-07 14:21 28.75705 -83.20502 41059 ft 498 kts
2026-05-07 14:22 28.82393 -83.18555 41055 ft 498 kts
2026-05-07 14:22 28.89111 -83.16597 41057 ft 498 kts
2026-05-07 14:23 28.95833 -83.14636 41056 ft 498 kts
2026-05-07 14:23 29.02554 -83.12672 41060 ft 498 kts
2026-05-07 14:24 29.09217 -83.10722 41059 ft 498 kts
2026-05-07 14:24 29.15924 -83.08757 41061 ft 497 kts
2026-05-07 14:25 29.22627 -83.06791 41056 ft 497 kts
2026-05-07 14:25 29.29338 -83.04822 41059 ft 497 kts
2026-05-07 14:26 29.36052 -83.02846 41062 ft 497 kts
2026-05-07 14:26 29.42749 -83.00871 41062 ft 497 kts
2026-05-07 14:27 29.49449 -82.98894 41063 ft 497 kts
2026-05-07 14:27 29.56153 -82.96919 41065 ft 497 kts
2026-05-07 14:28 29.62860 -82.94936 41062 ft 497 kts
2026-05-07 14:28 29.69524 -82.92960 41064 ft 498 kts
2026-05-07 14:29 29.76247 -82.90965 41064 ft 498 kts
2026-05-07 14:29 29.82973 -82.88969 41059 ft 499 kts
2026-05-07 14:30 29.89707 -82.86967 41058 ft 499 kts
2026-05-07 14:30 29.96410 -82.84981 41063 ft 500 kts
2026-05-07 14:31 30.03151 -82.82967 41068 ft 501 kts
2026-05-07 14:31 30.09911 -82.80944 41071 ft 501 kts
2026-05-07 14:32 30.16671 -82.78922 41075 ft 502 kts
2026-05-07 14:32 30.23439 -82.76895 41076 ft 502 kts
2026-05-07 14:33 30.30223 -82.74861 41079 ft 502 kts
2026-05-07 14:33 30.36942 -82.72842 41086 ft 502 kts
2026-05-07 14:34 30.43714 -82.70805 41098 ft 502 kts
2026-05-07 14:34 30.50472 -82.68770 41119 ft 502 kts
2026-05-07 14:35 30.57256 -82.67041 41131 ft 496 kts
2026-05-07 14:35 30.64061 -82.65714 41271 ft 495 kts
2026-05-07 14:35 30.67330 -82.65077 41422 ft 494 kts
2026-05-07 14:36 30.70718 -82.64395 41589 ft 494 kts
2026-05-07 14:36 30.76332 -82.63225 41836 ft 492 kts
2026-05-07 14:36 30.79700 -82.62508 41977 ft 492 kts
2026-05-07 14:37 30.83076 -82.61785 42111 ft 491 kts
2026-05-07 14:37 30.89751 -82.60350 42358 ft 490 kts
2026-05-07 14:37 30.93107 -82.59629 42482 ft 490 kts
2026-05-07 14:38 30.96459 -82.58909 42601 ft 489 kts
2026-05-07 14:38 30.99807 -82.58190 42722 ft 489 kts
2026-05-07 14:38 31.03153 -82.57471 42832 ft 488 kts
2026-05-07 14:38 31.06488 -82.56673 42928 ft 493 kts
2026-05-07 14:39 31.09784 -82.55410 43020 ft 504 kts 13°
2026-05-07 14:39 31.12992 -82.53701 43092 ft 509 kts 17°
2026-05-07 14:39 31.19330 -82.49948 43096 ft 512 kts 19°
2026-05-07 14:40 31.25595 -82.46087 43095 ft 512 kts 19°
2026-05-07 14:40 31.31906 -82.42205 43095 ft 512 kts 18°
2026-05-07 14:41 31.38216 -82.38350 43081 ft 512 kts 18°
2026-05-07 14:41 31.44537 -82.34495 43067 ft 512 kts 18°
2026-05-07 14:42 31.50855 -82.30635 43062 ft 512 kts 18°
2026-05-07 14:42 31.57181 -82.26763 43049 ft 513 kts 18°
2026-05-07 14:43 31.63475 -82.22905 43026 ft 513 kts 18°
2026-05-07 14:43 31.69830 -82.19002 42995 ft 514 kts 18°
2026-05-07 14:44 31.76133 -82.15127 42966 ft 514 kts 18°
2026-05-07 14:44 31.82462 -82.11229 42959 ft 513 kts 18°
2026-05-07 14:45 31.88798 -82.07321 42951 ft 513 kts 18°
2026-05-07 14:45 31.95132 -82.03408 42946 ft 513 kts 18°
2026-05-07 14:46 32.01458 -81.99494 42945 ft 513 kts 18°
2026-05-07 14:46 32.07758 -81.95590 42976 ft 513 kts 18°
2026-05-07 14:47 32.14018 -81.91440 42983 ft 525 kts 25°
2026-05-07 14:47 32.19715 -81.85870 42972 ft 535 kts 33°
2026-05-07 14:48 32.25191 -81.79962 42982 ft 537 kts 34°
2026-05-07 14:48 32.30675 -81.73951 42971 ft 537 kts 34°
2026-05-07 14:49 32.36180 -81.67942 42954 ft 538 kts 33°
2026-05-07 14:49 32.41693 -81.61944 42958 ft 538 kts 33°
2026-05-07 14:50 32.47219 -81.55930 42957 ft 539 kts 33°
2026-05-07 14:50 32.52714 -81.49939 42974 ft 539 kts 33°
2026-05-07 14:51 32.58237 -81.43906 42969 ft 540 kts 33°
2026-05-07 14:51 32.63743 -81.37883 42969 ft 540 kts 33°
2026-05-07 14:52 32.69266 -81.31832 42957 ft 541 kts 33°
2026-05-07 14:52 32.74799 -81.25749 42953 ft 541 kts 33°
2026-05-07 14:53 32.80292 -81.19702 42959 ft 541 kts 33°
2026-05-07 14:53 32.85822 -81.13605 42960 ft 542 kts 33°
2026-05-07 14:54 32.91348 -81.07503 42959 ft 542 kts 33°
2026-05-07 14:54 32.96877 -81.01387 42958 ft 542 kts 33°
2026-05-07 14:55 33.02401 -80.95265 42952 ft 543 kts 33°
2026-05-07 14:55 33.07929 -80.89129 42954 ft 543 kts 33°
2026-05-07 14:56 33.12535 -80.84007 42947 ft 543 kts 33°
2026-05-07 14:56 33.18999 -80.76805 42931 ft 544 kts 33°
2026-05-07 14:57 33.24489 -80.70677 42922 ft 544 kts 33°
2026-05-07 14:57 33.30021 -80.64492 42920 ft 545 kts 33°
2026-05-07 14:58 33.35554 -80.58292 42911 ft 545 kts 33°
2026-05-07 14:58 33.41085 -80.52085 42909 ft 545 kts 33°
2026-05-07 14:59 33.46508 -80.45659 42916 ft 557 kts 41°
2026-05-07 14:59 33.48774 -80.41825 42926 ft 568 kts 51°
2026-05-07 14:59 33.50764 -80.37780 42924 ft 572 kts 53°
2026-05-07 15:00 33.54571 -80.29371 42927 ft 575 kts 55°
2026-05-07 15:00 33.58291 -80.20883 42935 ft 576 kts 55°
2026-05-07 15:01 33.62040 -80.12381 42941 ft 575 kts 55°
2026-05-07 15:01 33.65803 -80.03916 42921 ft 575 kts 55°
2026-05-07 15:02 33.69571 -79.95440 42925 ft 575 kts 55°
2026-05-07 15:02 33.73325 -79.86954 42928 ft 575 kts 55°
2026-05-07 15:03 33.77081 -79.78443 42924 ft 576 kts 55°
2026-05-07 15:03 33.80829 -79.69933 42914 ft 576 kts 55°
2026-05-07 15:04 33.84546 -79.61474 42919 ft 576 kts 55°
2026-05-07 15:04 33.88279 -79.52966 42919 ft 575 kts 55°
2026-05-07 15:05 33.92016 -79.44435 42913 ft 575 kts 55°
2026-05-07 15:05 33.95740 -79.35904 42925 ft 576 kts 55°
2026-05-07 15:06 33.99463 -79.27359 42931 ft 576 kts 55°
2026-05-07 15:06 34.03180 -79.18808 42930 ft 576 kts 55°
2026-05-07 15:07 34.07126 -79.10434 42926 ft 571 kts 50°
2026-05-07 15:07 34.11340 -79.02320 42923 ft 571 kts 50°
2026-05-07 15:08 34.15543 -78.94178 42925 ft 572 kts 50°
2026-05-07 15:08 34.19692 -78.85969 42932 ft 573 kts 51°
2026-05-07 15:09 34.23801 -78.77702 42938 ft 574 kts 51°
2026-05-07 15:09 34.27893 -78.69393 42935 ft 575 kts 51°
2026-05-07 15:10 34.32156 -78.61260 42937 ft 565 kts 42°
2026-05-07 15:10 34.34763 -78.57815 42926 ft 548 kts 31°
2026-05-07 15:10 34.37598 -78.54846 42926 ft 543 kts 28°
2026-05-07 15:11 34.43488 -78.49168 42933 ft 540 kts 26°
2026-05-07 15:11 34.49440 -78.43610 42930 ft 540 kts 26°
2026-05-07 15:12 34.55372 -78.38038 42926 ft 541 kts 26°
2026-05-07 15:12 34.61330 -78.32392 42924 ft 542 kts 27°
2026-05-07 15:13 34.67275 -78.26731 42921 ft 543 kts 27°
2026-05-07 15:13 34.73218 -78.21060 42911 ft 544 kts 27°
2026-05-07 15:14 34.79176 -78.15367 42922 ft 544 kts 27°
2026-05-07 15:14 34.85139 -78.09658 42923 ft 545 kts 27°
2026-05-07 15:15 34.91114 -78.03954 42934 ft 546 kts 27°
2026-05-07 15:15 34.97085 -77.98247 42938 ft 546 kts 27°
2026-05-07 15:16 35.03030 -77.92555 42935 ft 546 kts 27°
2026-05-07 15:16 35.09040 -77.86789 42933 ft 546 kts 27°
2026-05-07 15:17 35.14972 -77.81087 42925 ft 546 kts 27°
2026-05-07 15:17 35.20960 -77.75320 42923 ft 546 kts 27°
2026-05-07 15:18 35.26927 -77.69560 42928 ft 547 kts 27°
2026-05-07 15:18 35.32896 -77.63786 42929 ft 547 kts 27°
2026-05-07 15:19 35.38869 -77.57996 42929 ft 547 kts 27°
2026-05-07 15:19 35.44845 -77.52192 42925 ft 548 kts 27°
2026-05-07 15:20 35.50787 -77.46412 42895 ft 549 kts 27°
2026-05-07 15:20 35.56770 -77.40557 42890 ft 550 kts 27°
2026-05-07 15:21 35.62758 -77.34696 42889 ft 551 kts 27°
2026-05-07 15:21 35.68753 -77.28829 42889 ft 551 kts 27°
2026-05-07 15:22 35.74754 -77.22949 42898 ft 552 kts 27°
2026-05-07 15:22 35.80754 -77.17057 42901 ft 552 kts 27°
2026-05-07 15:23 35.86765 -77.11141 42898 ft 553 kts 27°
2026-05-07 15:23 35.92833 -77.05509 42906 ft 541 kts 19°
2026-05-07 15:24 35.99232 -77.00672 42899 ft 538 kts 18°
2026-05-07 15:24 36.05683 -76.95974 42899 ft 538 kts 18°
2026-05-07 15:25 36.11055 -76.92078 42904 ft 539 kts 18°
2026-05-07 15:25 36.17522 -76.87362 42907 ft 540 kts 18°
2026-05-07 15:26 36.23989 -76.82625 42914 ft 540 kts 18°
2026-05-07 15:26 36.30457 -76.77872 42918 ft 541 kts 18°
2026-05-07 15:27 36.36930 -76.73105 42924 ft 542 kts 18°
2026-05-07 15:27 36.43423 -76.68318 42938 ft 543 kts 18°
2026-05-07 15:28 36.49916 -76.63522 42948 ft 545 kts 18°
2026-05-07 15:28 36.56402 -76.58720 42959 ft 546 kts 18°
2026-05-07 15:29 36.62921 -76.53883 42959 ft 547 kts 18°
2026-05-07 15:29 36.69463 -76.49017 42960 ft 547 kts 18°
2026-05-07 15:30 36.75971 -76.44167 42971 ft 547 kts 18°
2026-05-07 15:30 36.82500 -76.39295 42973 ft 546 kts 18°
2026-05-07 15:31 36.89012 -76.34432 42954 ft 546 kts 18°
2026-05-07 15:31 36.95532 -76.29547 42955 ft 546 kts 18°
2026-05-07 15:32 37.02002 -76.24686 42956 ft 547 kts 19°
2026-05-07 15:32 37.08525 -76.19777 42955 ft 547 kts 19°
2026-05-07 15:33 37.15055 -76.14853 42957 ft 548 kts 19°
2026-05-07 15:33 37.21587 -76.09919 42942 ft 549 kts 19°
2026-05-07 15:34 37.28130 -76.04967 42941 ft 550 kts 19°
2026-05-07 15:34 37.34681 -75.99999 42933 ft 550 kts 19°
2026-05-07 15:35 37.41236 -75.95015 42933 ft 551 kts 19°
2026-05-07 15:35 37.47776 -75.90032 42936 ft 552 kts 19°
2026-05-07 15:36 37.54333 -75.85027 42943 ft 552 kts 19°
2026-05-07 15:36 37.60925 -75.80065 42973 ft 551 kts 18°
2026-05-07 15:37 37.67542 -75.75126 42970 ft 552 kts 18°
2026-05-07 15:37 37.74163 -75.70166 42972 ft 553 kts 18°
2026-05-07 15:38 37.80757 -75.65205 42961 ft 553 kts 18°
2026-05-07 15:38 37.87349 -75.60144 42972 ft 558 kts 21°
2026-05-07 15:39 37.93778 -75.54541 42980 ft 564 kts 24°
2026-05-07 15:39 38.00186 -75.48776 42969 ft 564 kts 24°
2026-05-07 15:40 38.06581 -75.43108 42971 ft 564 kts 23°
2026-05-07 15:40 38.13135 -75.37671 42963 ft 560 kts 20°
2026-05-07 15:41 38.19722 -75.32401 42976 ft 561 kts 20°
2026-05-07 15:41 38.23071 -75.29944 42974 ft 548 kts 13°
2026-05-07 15:41 38.26547 -75.28164 42982 ft 528 kts
2026-05-07 15:42 38.30048 -75.27074 42983 ft 515 kts 357°
2026-05-07 15:42 38.33552 -75.26214 42981 ft 512 kts 355°
2026-05-07 15:42 38.40584 -75.24740 42978 ft 512 kts 354°
2026-05-07 15:43 38.47576 -75.23337 42973 ft 514 kts 355°
2026-05-07 15:43 38.54674 -75.21884 42963 ft 517 kts 355°
2026-05-07 15:44 38.61774 -75.20390 42794 ft 513 kts 355°
2026-05-07 15:44 38.65285 -75.19639 42133 ft 512 kts 355°
2026-05-07 15:44 38.68818 -75.18617 41292 ft 534 kts
2026-05-07 15:45 38.72286 -75.16572 40450 ft 565 kts 21°
2026-05-07 15:45 38.74356 -75.14788 39955 ft 576 kts 26°
2026-05-07 15:45 38.77152 -75.12087 39268 ft 583 kts 28°
2026-05-07 15:45 38.80375 -75.08888 38462 ft 586 kts 28°
2026-05-07 15:46 38.86841 -75.02493 36687 ft 591 kts 28°
2026-05-07 15:46 38.90113 -74.99267 35813 ft 593 kts 28°
2026-05-07 15:46 38.93400 -74.96027 34928 ft 596 kts 28°
2026-05-07 15:47 38.96703 -74.92769 34040 ft 599 kts 29°
2026-05-07 15:47 39.00016 -74.89500 33009 ft 603 kts 30°
2026-05-07 15:47 39.03315 -74.86241 31951 ft 606 kts 30°
2026-05-07 15:47 39.06669 -74.82926 30913 ft 610 kts 31°
2026-05-07 15:48 39.10001 -74.79626 29850 ft 614 kts 32°
2026-05-07 15:48 39.13294 -74.76212 28797 ft 616 kts 34°
2026-05-07 15:48 39.16546 -74.72647 27965 ft 612 kts 36°
2026-05-07 15:48 39.19769 -74.69099 27426 ft 602 kts 35°
2026-05-07 15:49 39.22908 -74.65656 27172 ft 586 kts 35°
2026-05-07 15:49 39.25985 -74.62297 26862 ft 574 kts 34°
2026-05-07 15:49 39.29027 -74.58991 26225 ft 570 kts 34°
2026-05-07 15:49 39.32061 -74.55698 25647 ft 565 kts 34°
2026-05-07 15:50 39.35055 -74.52445 25071 ft 559 kts 34°
2026-05-07 15:50 39.38008 -74.49232 24514 ft 554 kts 34°
2026-05-07 15:50 39.40948 -74.46030 23954 ft 549 kts 35°
2026-05-07 15:50 39.43854 -74.42872 23373 ft 544 kts 35°
2026-05-07 15:51 39.46732 -74.39730 22727 ft 538 kts 35°
2026-05-07 15:51 39.49557 -74.36636 22113 ft 533 kts 35°
2026-05-07 15:51 39.52373 -74.33549 21500 ft 527 kts 35°
2026-05-07 15:51 39.55157 -74.30489 20905 ft 522 kts 35°
2026-05-07 15:52 39.57915 -74.27459 20300 ft 516 kts 35°
2026-05-07 15:52 39.60637 -74.24477 19712 ft 511 kts 34°
2026-05-07 15:52 39.63339 -74.21511 19122 ft 506 kts 34°
2026-05-07 15:52 39.66002 -74.18581 18571 ft 500 kts 34°
2026-05-07 15:53 39.68646 -74.15672 18091 ft 495 kts 34°
2026-05-07 15:53 39.71254 -74.12803 17465 ft 490 kts 34°
2026-05-07 15:53 39.73828 -74.09958 16933 ft 482 kts 34°
2026-05-07 15:53 39.76337 -74.07184 16435 ft 474 kts 34°
2026-05-07 15:54 39.78808 -74.04445 15942 ft 455 kts 34°
2026-05-07 15:54 39.81152 -74.01828 15467 ft 433 kts 34°
2026-05-07 15:54 39.83380 -73.99378 14989 ft 405 kts 32°
2026-05-07 15:54 39.85635 -73.97439 14544 ft 375 kts 21°
2026-05-07 15:55 39.87862 -73.95835 14084 ft 356 kts 19°
2026-05-07 15:55 39.90009 -73.94330 13400 ft 347 kts 19°
2026-05-07 15:55 39.92129 -73.92850 12545 ft 342 kts 20°
2026-05-07 15:55 39.94215 -73.91396 11749 ft 341 kts 20°
2026-05-07 15:56 39.96332 -73.89950 11224 ft 344 kts 20°
2026-05-07 15:56 39.98430 -73.88526 10971 ft 336 kts 20°
2026-05-07 15:56 40.00551 -73.87429 10584 ft 319 kts
2026-05-07 15:56 40.02664 -73.87194 10257 ft 303 kts 349°
2026-05-07 15:57 40.04753 -73.87247 9879 ft 299 kts 348°
2026-05-07 15:57 40.06820 -73.87344 9455 ft 296 kts 348°
2026-05-07 15:57 40.08863 -73.87460 9016 ft 289 kts 348°
2026-05-07 15:57 40.10850 -73.87589 8335 ft 284 kts 348°
2026-05-07 15:58 40.12815 -73.87705 7645 ft 282 kts 352°
2026-05-07 15:58 40.14754 -73.87713 7023 ft 276 kts 353°
2026-05-07 15:58 40.16657 -73.87714 6431 ft 270 kts 353°
2026-05-07 15:58 40.18519 -73.87714 5789 ft 265 kts 354°
2026-05-07 15:59 40.20337 -73.87714 5179 ft 258 kts 356°
2026-05-07 15:59 40.22110 -73.87711 4577 ft 251 kts 357°
2026-05-07 15:59 40.23848 -73.87705 4089 ft 250 kts 358°
2026-05-07 15:59 40.25577 -73.87697 3702 ft 247 kts 359°
2026-05-07 16:00 40.27286 -73.87688 3322 ft 244 kts 359°
2026-05-07 16:00 40.28981 -73.87678 3009 ft 242 kts 360°
2026-05-07 16:00 40.30626 -73.87666 2873 ft 231 kts 360°
2026-05-07 16:00 40.32188 -73.87655 2756 ft 219 kts 360°
2026-05-07 16:01 40.33690 -73.87646 2624 ft 214 kts 359°
2026-05-07 16:01 40.35174 -73.87638 2506 ft 213 kts 359°
2026-05-07 16:01 40.36664 -73.87632 2379 ft 214 kts 360°
2026-05-07 16:01 40.38131 -73.87625 2237 ft 214 kts 360°
2026-05-07 16:02 40.39621 -73.87618 2119 ft 215 kts
2026-05-07 16:02 40.41113 -73.87609 2008 ft 214 kts 359°
2026-05-07 16:02 40.42602 -73.87600 1976 ft 214 kts 359°
2026-05-07 16:02 40.44093 -73.87592 1985 ft 213 kts 359°
2026-05-07 16:03 40.45575 -73.87585 1986 ft 213 kts 359°
2026-05-07 16:03 40.47051 -73.87576 1990 ft 212 kts 359°
2026-05-07 16:03 40.48468 -73.87420 1992 ft 198 kts
2026-05-07 16:03 40.49775 -73.86938 1993 ft 196 kts 22°
2026-05-07 16:04 40.50964 -73.86046 1988 ft 197 kts 30°
2026-05-07 16:04 40.52141 -73.85135 1977 ft 197 kts 27°
2026-05-07 16:04 40.53326 -73.84220 1970 ft 196 kts 28°
2026-05-07 16:04 40.54465 -73.83334 1930 ft 184 kts 27°
2026-05-07 16:05 40.55542 -73.82503 1702 ft 174 kts 27°
2026-05-07 16:05 40.56547 -73.81722 1482 ft 161 kts 27°
2026-05-07 16:05 40.57472 -73.80997 1246 ft 149 kts 27°
2026-05-07 16:05 40.58335 -73.80323 1048 ft 140 kts 28°
2026-05-07 16:06 40.59138 -73.79695 847 ft 132 kts 27°
2026-05-07 16:06 40.59915 -73.79086 660 ft 126 kts 26°
2026-05-07 16:06 40.60671 -73.78497 494 ft 127 kts 24°
2026-05-07 16:06 40.61433 -73.77914 355 ft 127 kts 25°
2026-05-07 16:07 40.62179 -73.77308 153 ft 126 kts 23°
2026-05-07 16:07 40.62942 -73.76749 39 ft 125 kts 23°
2026-05-07 16:07 40.63637 -73.76208 29 ft 88 kts 34°
2026-05-07 16:07 40.63947 -73.75939 28 ft 45 kts 26°
2026-05-07 16:08 40.64189 -73.75861 28 ft 29 kts 355°
2026-05-07 16:08 40.64284 -73.76013 28 ft 22 kts 268°
2026-05-07 16:08 40.64277 -73.76218 27 ft 23 kts 268°
2026-05-07 16:08 40.64271 -73.76432 27 ft 24 kts 268°
2026-05-07 16:09 40.64268 -73.76622 26 ft 18 kts 278°
2026-05-07 16:09 40.64318 -73.76751 31 ft 16 kts 301°
2026-05-07 16:09 40.64375 -73.76877 26 ft 16 kts 301°
2026-05-07 16:09 40.64406 -73.76959 27 ft 15 kts 288°
2026-05-07 16:10 40.64402 -73.77121 27 ft 12 kts 230°
2026-05-07 16:10 40.64355 -73.77165 27 ft 13 kts 211°
2026-05-07 16:10 40.64276 -73.77226 27 ft 14 kts 210°
2026-05-07 16:10 40.64191 -73.77293 27 ft 15 kts 211°
2026-05-07 16:11 40.64097 -73.77366 27 ft 16 kts 210°
2026-05-07 16:11 40.63999 -73.77444 26 ft 17 kts 211°
2026-05-07 16:11 40.63895 -73.77524 26 ft 18 kts 211°
2026-05-07 16:11 40.63788 -73.77610 26 ft 19 kts 212°
2026-05-07 16:12 40.63675 -73.77696 26 ft 19 kts 210°
2026-05-07 16:12 40.63573 -73.77779 27 ft 16 kts 223°
2026-05-07 16:12 40.63595 -73.77877 27 ft 12 kts 332°
2026-05-07 16:12 40.63677 -73.77899 27 ft 12 kts 352°
2026-05-07 16:13 40.63766 -73.77913 27 ft 13 kts 353°
2026-05-07 16:13 40.63860 -73.77927 27 ft 14 kts 353°
2026-05-07 16:13 40.63960 -73.77942 27 ft 14 kts 353°
2026-05-07 16:13 40.64033 -73.77981 27 ft 8 kts 298°
2026-05-07 16:14 40.64025 -73.78041 27 ft 6 kts 246°
2026-05-07 16:14 40.64013 -73.78077 27 ft 0 kts 246°